Sanford, NC

9:37 PM EDT on May 20, 2018 (GMT -0400)
Raleigh Executive Jetport

Weather History for KTTA - August, 2013

Change the Weather History Date:

Thursday, August 29, 2013

  Actual Average (KHRJ) Record (KHRJ)
Temperature  
Mean Temperature 80 °F -  
Max Temperature 88 °F 87 °F 100 °F (2006)
Min Temperature 71 °F 65 °F -47 °F (2004)
Cooling Degree Days 15    
Growing Degree Days 30 (Base 50)    
Moisture  
Dew Point 70 °F    
Average Humidity 74    
Maximum Humidity 92    
Minimum Humidity 52    
Precipitation  
Precipitation 0.00 in - - ()
Sea Level Pressure  
Sea Level Pressure 29.92 in    
Wind  
Wind Speed 5 mph (NW)    
Max Wind Speed 13 mph    
Max Gust Speed 17 mph    
Visibility 8 miles    
Events      
Averages and records for this station are not official NWS values.
T = Trace of Precipitation, MM = Missing Value Source: NWS Daily Summary

Daily Weather History Graph

Daily Weather History Graph

Search for Another Location

Airport or City:

Astronomy

Aug. 29, 2013 Rise Set
Actual Time 6:46 AM EDT 7:47 PM EDT
Civil Twilight 6:20 AM EDT 8:13 PM EDT
Nautical Twilight 5:49 AM EDT 8:44 PM EDT
Astronomical Twilight 5:16 AM EDT 9:16 PM EDT
Moon 12:42 AM EDT (8/29) 3:08 PM EDT (8/29)
Length of Visible Light 13h 53m
Length of Day
13h 00m
Last Quarter, 38% of the Moon is Illuminated
Aug 29
Last Quarter
Sep 5
New
Sep 12
First Quarter
Sep 19
Full
Sep 26
Last Quarter

Hourly Weather History & Observations

Time (EDT) Temp. Heat Index Dew Point Humidity Pressure Visibility Wind Dir Wind Speed Gust Speed Precip Events Conditions
12:15 AM 76.1 °F - 71.6 °F 86% 29.89 in 7.0 mi SW 5.8 mph - N/A   Scattered Clouds
12:35 AM 75.7 °F - 71.4 °F 86% 29.89 in 7.0 mi SW 3.5 mph - N/A   Scattered Clouds
12:55 AM 75.7 °F - 71.2 °F 86% 29.88 in 7.0 mi SW 3.5 mph - N/A   Scattered Clouds
1:15 AM 75.7 °F - 71.2 °F 86% 29.88 in 7.0 mi SW 3.5 mph - N/A   Scattered Clouds
1:35 AM 75.7 °F - 71.2 °F 86% 29.88 in 7.0 mi SW 3.5 mph - N/A   Mostly Cloudy
1:55 AM 75.6 °F - 71.2 °F 86% 29.88 in 7.0 mi West 3.5 mph - N/A   Overcast
2:15 AM 75.6 °F - 71.1 °F 86% 29.88 in 7.0 mi WSW 4.6 mph - N/A   Overcast
2:35 AM 75.2 °F - 71.1 °F 87% 29.87 in 7.0 mi SW 3.5 mph - N/A   Overcast
2:55 AM 75.0 °F - 71.1 °F 87% 29.87 in 5.0 mi SW 4.6 mph - N/A   Mostly Cloudy
3:15 AM 75.2 °F - 71.1 °F 87% 29.87 in 7.0 mi SW 5.8 mph - N/A   Overcast
3:35 AM 75.2 °F - 71.1 °F 87% 29.87 in 7.0 mi SW 4.6 mph - N/A   Overcast
3:55 AM 75.2 °F - 71.1 °F 87% 29.87 in 7.0 mi WSW 3.5 mph - N/A   Overcast
4:15 AM 75.2 °F - 71.1 °F 87% 29.87 in 7.0 mi WSW 4.6 mph - N/A   Overcast
4:35 AM 75.2 °F - 70.9 °F 86% 29.86 in 7.0 mi WSW 5.8 mph - N/A   Mostly Cloudy
4:55 AM 74.8 °F - 70.9 °F 87% 29.86 in 5.0 mi WSW 5.8 mph - N/A   Overcast
5:15 AM 74.3 °F - 70.7 °F 88% 29.86 in 5.0 mi WSW 5.8 mph - N/A   Mostly Cloudy
5:35 AM 74.3 °F - 70.7 °F 88% 29.87 in 5.0 mi WSW 5.8 mph - N/A   Mostly Cloudy
5:55 AM 74.3 °F - 70.7 °F 88% 29.87 in 5.0 mi WSW 4.6 mph - N/A   Overcast
6:15 AM 74.5 °F - 70.7 °F 88% 29.88 in 5.0 mi WSW 4.6 mph - N/A   Overcast
6:35 AM 74.5 °F - 70.7 °F 88% 29.88 in 5.0 mi WSW 4.6 mph - N/A   Overcast
6:55 AM 74.1 °F - 70.7 °F 89% 29.88 in 5.0 mi Calm Calm - N/A   Mostly Cloudy
7:15 AM 74.1 °F - 70.7 °F 89% 29.89 in 4.0 mi WSW 3.5 mph - N/A   Overcast
7:35 AM 74.3 °F - 70.7 °F 88% 29.90 in 4.0 mi West 3.5 mph - N/A   Overcast
7:55 AM 74.5 °F - 70.7 °F 88% 29.90 in 5.0 mi WSW 3.5 mph - N/A   Overcast
8:15 AM 75.2 °F - 70.9 °F 86% 29.91 in 5.0 mi West 3.5 mph - N/A   Scattered Clouds
8:35 AM 77.0 °F - 70.9 °F 81% 29.91 in 7.0 mi West 3.5 mph - N/A   Mostly Cloudy
8:55 AM 78.4 °F - 70.9 °F 77% 29.91 in 7.0 mi WNW 5.8 mph - N/A   Scattered Clouds
9:15 AM 79.2 °F - 70.9 °F 76% 29.91 in 10.0 mi NW 4.6 mph - N/A   Scattered Clouds
9:35 AM 80.6 °F 84.1 °F 70.3 °F 71% 29.91 in 10.0 mi NW 6.9 mph - N/A   Scattered Clouds
9:55 AM 82.4 °F 87.0 °F 71.4 °F 69% 29.92 in 10.0 mi NNE 6.9 mph - N/A   Scattered Clouds
10:15 AM 82.6 °F 87.1 °F 70.9 °F 68% 29.93 in 10.0 mi North 10.4 mph - N/A   Clear
10:35 AM 81.9 °F 86.2 °F 71.1 °F 70% 29.93 in 10.0 mi NNE 9.2 mph - N/A   Mostly Cloudy
10:55 AM 84.6 °F 89.4 °F 70.9 °F 63% 29.93 in 10.0 mi North 10.4 mph - N/A   Overcast
11:15 AM 84.0 °F 88.7 °F 70.7 °F 64% 29.93 in 10.0 mi NNE 8.1 mph - N/A   Scattered Clouds
11:35 AM 84.4 °F 89.0 °F 70.7 °F 63% 29.93 in 10.0 mi NNE 9.2 mph 16.1 mph N/A   Scattered Clouds
11:55 AM 85.5 °F 90.8 °F 70.9 °F 62% 29.93 in 10.0 mi NNE 10.4 mph 16.1 mph N/A   Scattered Clouds
12:15 PM 84.7 °F 89.7 °F 70.7 °F 63% 29.93 in 10.0 mi North 10.4 mph - N/A   Mostly Cloudy
12:35 PM 83.3 °F 87.1 °F 69.6 °F 63% 29.93 in 10.0 mi North 10.4 mph - N/A   Mostly Cloudy
1:15 PM 85.3 °F 89.8 °F 70.0 °F 60% 29.93 in 10.0 mi NNE 11.5 mph 16.1 mph N/A   Mostly Cloudy
1:55 PM 84.9 °F 89.4 °F 70.2 °F 61% 29.94 in 10.0 mi North 8.1 mph - N/A   Mostly Cloudy
2:15 PM 86.0 °F 90.1 °F 69.1 °F 57% 29.93 in 10.0 mi NNE 12.7 mph 17.3 mph N/A   Scattered Clouds
2:35 PM 86.2 °F 90.0 °F 68.7 °F 56% 29.93 in 10.0 mi NNE 11.5 mph 17.3 mph N/A   Scattered Clouds
2:55 PM 86.9 °F 90.3 °F 67.8 °F 53% 29.93 in 10.0 mi North 9.2 mph - N/A   Scattered Clouds
3:15 PM 87.3 °F 90.9 °F 68.4 °F 53% 29.93 in 10.0 mi North 8.1 mph - N/A   Clear
3:35 PM 87.6 °F 91.1 °F 68.2 °F 52% 29.92 in 10.0 mi NNE 10.4 mph - N/A   Clear
3:55 PM 88.2 °F 92.1 °F 68.7 °F 52% 29.92 in 10.0 mi North 9.2 mph - N/A   Clear
4:15 PM 88.0 °F 92.5 °F 69.3 °F 54% 29.91 in 10.0 mi NNE 9.2 mph - N/A   Clear
4:35 PM 87.8 °F 92.2 °F 69.1 °F 54% 29.91 in 10.0 mi North 10.4 mph - N/A   Scattered Clouds
4:55 PM 87.8 °F 92.2 °F 69.1 °F 54% 29.92 in 10.0 mi North 8.1 mph - N/A   Scattered Clouds
5:15 PM 87.3 °F 91.6 °F 69.3 °F 55% 29.92 in 10.0 mi NNE 11.5 mph - N/A   Clear
5:35 PM 86.5 °F 89.6 °F 67.5 °F 53% 29.92 in 10.0 mi North 9.2 mph - N/A   Clear
5:55 PM 86.2 °F 89.7 °F 68.2 °F 55% 29.92 in 10.0 mi North 11.5 mph - N/A   Clear
6:15 PM 86.0 °F 89.4 °F 68.0 °F 55% 29.92 in 10.0 mi North 8.1 mph - N/A   Clear
6:35 PM 85.3 °F 88.5 °F 68.0 °F 56% 29.93 in 10.0 mi North 8.1 mph - N/A   Clear
6:55 PM 84.0 °F 87.0 °F 68.0 °F 58% 29.93 in 10.0 mi NNE 5.8 mph - N/A   Clear
7:15 PM 82.2 °F 85.3 °F 68.4 °F 63% 29.93 in 10.0 mi North 5.8 mph - N/A   Clear
7:35 PM 79.7 °F - 68.9 °F 69% 29.94 in 10.0 mi North 3.5 mph - N/A   Clear
7:55 PM 77.7 °F - 68.9 °F 74% 29.95 in 7.0 mi NNE 3.5 mph - N/A   Clear
8:15 PM 76.6 °F - 69.3 °F 78% 29.95 in 10.0 mi Calm Calm - N/A   Scattered Clouds
8:35 PM 76.1 °F - 69.8 °F 81% 29.96 in 10.0 mi Calm Calm - N/A   Scattered Clouds
8:55 PM 77.2 °F - 69.1 °F 76% 29.97 in 7.0 mi NNE 4.6 mph - N/A   Mostly Cloudy
9:15 PM 78.3 °F - 68.9 °F 73% 29.99 in 10.0 mi NE 8.1 mph - N/A   Overcast
9:35 PM 77.0 °F - 69.8 °F 78% 29.99 in 10.0 mi East 4.6 mph - N/A   Light Drizzle
9:55 PM 76.1 °F - 69.8 °F 81% 29.99 in 10.0 mi Calm Calm - N/A   Scattered Clouds
10:15 PM 75.6 °F - 69.8 °F 82% 30.00 in 10.0 mi NE 3.5 mph - N/A   Clear
10:35 PM 74.5 °F - 69.4 °F 84% 30.01 in 10.0 mi Calm Calm - N/A   Clear
10:55 PM 73.6 °F - 69.6 °F 87% 30.01 in 10.0 mi Calm Calm - N/A   Clear
11:15 PM 73.4 °F - 69.8 °F 88% 30.01 in 10.0 mi Calm Calm - N/A   Clear
11:35 PM 72.5 °F - 69.4 °F 90% 30.01 in 7.0 mi Calm Calm - N/A   Clear
11:55 PM 71.8 °F - 69.4 °F 92% 30.02 in 7.0 mi Calm Calm - N/A   Clear